Zurück zum Katalog

HULIANWANG DIGUI-180

AktivWissenschaftLEO
NORAD 100205·PAYLOAD·🇨🇳 China

Gestartet Aug 4, 2026 von Wenchang Space Launch Site

Loading…

Nächste Überflüge (nächste 24 Stunden)

TLE

AktuellSource: Space-Track

Epoche: Sep 14, 2026, 21:56 UTC

1 A0205U 26176C   26257.91434091 -.00000089  00000-0  75779-4 0  9999
2 A0205  49.9882 244.1299 0000236   0.9043 359.1829 13.29327106  5553

Verfolge HULIANWANG DIGUI-180 in Echtzeit mit AllMySat

Download on the App Store